map of OWD home
OWD - Airport
Location
City:  Norwood, Massachusetts, United States
Name:Norwood Memorial Airport
ICAO:KOWD
IATA:OWD
FAA LID:OWD

Details
Type:Airport (Airfield)
Use:Public/Civil
Latitude:4211'26"N (42.190528)
Longitude:7110'23"W (-71.172943)
Datum:WGS 1984
Elevation:49 ft (15 m)
Variation:14.50W (WMM2015 magnetic declination)
0.06 annual change
Runways:2
Longest:4008 × 100 ft (1222 × 30.5 m), paved

Time
Time Zone:UTC-5 (DST-4)
Local Time:

Weather
METAR:KOWD 170234Z AUTO 03013G20KT 2 1/2SM -RA BR BKN008 BKN012 OVC019 06/04 A2979 RMK AO2 P0004 T00560039

Related Locations
Nearby:
Farthest:YAUG: 11792 mi / 18977 km
Augusta [Augusta Airport], WA, AU

Find:

   beyond  
but within

Other Information
Maps:
NOTAMs:
Links:
Sources:

  
  • flag of United States
  • flag of Massachusetts
  

Airport Diagram

Airport diagram for OWD

Airport diagram PDF

Sectional Chart

Flight Planning
at skyvector.com

Satellite Image

Google Maps Satellite view

 

Copyright © 2004-2018 Karl L. Swartz. All rights reserved.
The Great Circle Mapper name and logo are trademarks of the Great Circle Mapper.
All other trademarks mentioned herein belong to their respective owners.
Please see credits for attibutions and further copyright information.

  Follow gcmap on Facebook Follow gcmap on Twitter Follow gcmap on Google+ GCmap on LinkedIn

hCard Microformat

Geo Microformat